This is the latest recevied weather packets stored in our database for station/object W5ITZ. If no packets are shown the sender has not sent any weather packets the latest 10 day(s).
| Time | Temp. | Humidity | Pressure | Rain* | Wind** | Luminosity | Snow |
|---|---|---|---|---|---|---|---|
| 1787599185 | 35.56° C | 45% | 1015.3 hPa | 0 mm | - | 930 W/m² | - |
| 1787598879 | 35.56° C | 46% | 1015.3 hPa | 0 mm | - | 933 W/m² | - |
| 1787598570 | 35.56° C | 47% | 1015.3 hPa | 0 mm | - | 939 W/m² | - |
| 1787598270 | 35.56° C | 46% | 1015.3 hPa | 0 mm | - | 943 W/m² | - |
| 1787597966 | 36.11° C | 46% | 1015.5 hPa | 0 mm | - | 951 W/m² | - |
| 1787597660 | 36.11° C | 45% | 1015.4 hPa | 0 mm | - | 951 W/m² | - |
| 1787597359 | 35.56° C | 45% | 1015.5 hPa | 0 mm | - | 952 W/m² | - |
| 1787597055 | 35.56° C | 47% | 1015.5 hPa | 0 mm | - | 954 W/m² | - |
| 1787596751 | 35.56° C | 48% | 1015.7 hPa | 0 mm | - | 961 W/m² | - |
| 1787596446 | 35° C | 48% | 1015.4 hPa | 0 mm | - | 959 W/m² | - |
| 1787596141 | 35° C | 48% | 1015.5 hPa | 0 mm | - | 958 W/m² | - |
| 1787595837 | 35° C | 49% | 1015.6 hPa | 0 mm | - | 963 W/m² | - |
| 1787595533 | 35° C | 49% | 1015.7 hPa | 0 mm | - | 965 W/m² | - |
| 1787595228 | 35° C | 48% | 1015.9 hPa | 0 mm | - | 966 W/m² | - |
| 1787594928 | 35° C | 51% | 1015.6 hPa | 0 mm | - | 960 W/m² | - |
| 1787594622 | 35° C | 51% | 1016 hPa | 0 mm | - | 962 W/m² | - |
| 1787594321 | 35° C | 54% | 1016 hPa | 0 mm | - | 975 W/m² | - |
| 1787594016 | 33.89° C | 55% | 1016 hPa | 0 mm | - | 970 W/m² | - |
| 1787593715 | 34.44° C | 55% | 1016.2 hPa | 0 mm | - | 955 W/m² | - |
| 1787593411 | 33.89° C | 56% | 1016 hPa | 0 mm | - | 970 W/m² | - |
| 1787593106 | 33.89° C | 56% | 1016.1 hPa | 0 mm | - | 732 W/m² | - |
| 1787592801 | 33.89° C | 58% | 1016.2 hPa | 0 mm | - | 911 W/m² | - |
| 1787592500 | 33.89° C | 56% | 1016.5 hPa | 0 mm | - | 960 W/m² | - |
| 1787592195 | 33.89° C | 57% | 1016.3 hPa | 0 mm | - | 946 W/m² | - |
| 1787591891 | 33.33° C | 58% | 1016.4 hPa | 0 mm | - | 913 W/m² | - |
* Rain latest hour (hover to see other rain measurements)
** Current wind speed in m/s (hover to see current wind gust speed)